TimeAST,TemperatureF,Dew PointF,Humidity,Sea Level PressureIn,VisibilityMPH,Wind Direction,Wind SpeedMPH,Gust SpeedMPH,PrecipitationIn,Events,Conditions,WindDirDegrees,DateUTC
12:00 AM,78.8,77.0,94,29.92,6.2,Calm,Calm,-,N/A,,Mostly Cloudy,0,2012-10-02 04:00:00
1:00 AM,78.8,77.0,94,29.92,6.2,Calm,Calm,-,N/A,,Mostly Cloudy,0,2012-10-02 05:00:00
2:00 AM,78,77,95,29.89,11,Calm,Calm,,,Rain,Light Rain Showers,,2012-10-02 06:00:00
2:30 AM,77.0,77.0,100,29.89,6.2,Calm,Calm,-,N/A,,Mostly Cloudy,0,2012-10-02 06:30:00
3:30 AM,77.0,77.0,100,29.86,6.2,Calm,Calm,-,N/A,,Mostly Cloudy,0,2012-10-02 07:30:00
4:00 AM,78.8,77.0,94,29.89,6.2,ENE,6.9,-,N/A,,Mostly Cloudy,70,2012-10-02 08:00:00
5:00 AM,79,76,89,29.89,11,East,6.9,,,,Widespread Dust,80,2012-10-02 09:00:00
5:00 AM,78.8,77.0,94,29.89,6.2,East,6.9,-,N/A,,Scattered Clouds,80,2012-10-02 09:00:00
6:00 AM,78.8,75.2,89,29.89,6.2,East,5.8,-,N/A,,Scattered Clouds,80,2012-10-02 10:00:00
7:00 AM,78.8,75.2,89,29.92,6.2,Calm,Calm,-,N/A,,Partly Cloudy,0,2012-10-02 11:00:00
8:00 AM,81,77,84,29.96,11,Calm,Calm,,,Rain,Light Rain Showers,,2012-10-02 12:00:00
8:00 AM,80.6,77.0,89,29.95,6.2,Calm,Calm,-,N/A,,Scattered Clouds,0,2012-10-02 12:00:00
9:00 AM,86.0,77.0,74,29.98,6.2,East,8.1,-,N/A,,Scattered Clouds,100,2012-10-02 13:00:00
10:00 AM,87.8,77.0,70,29.98,6.2,ESE,11.5,-,N/A,,Scattered Clouds,110,2012-10-02 14:00:00
11:00 AM,87,77,65,29.99,16,ESE,13.8,,,,Partly Cloudy,120,2012-10-02 15:00:00
11:00 AM,87.8,77.0,70,29.98,6.2,ESE,13.8,-,N/A,,Scattered Clouds,120,2012-10-02 15:00:00
12:00 PM,87.8,77.0,70,29.95,6.2,ESE,11.5,-,N/A,,Scattered Clouds,110,2012-10-02 16:00:00
1:00 PM,87.8,77.0,70,29.92,6.2,SE,12.7,-,N/A,,Scattered Clouds,130,2012-10-02 17:00:00
2:00 PM,87,76,63,29.91,17,ESE,11.5,,,,Partly Cloudy,120,2012-10-02 18:00:00
2:00 PM,87.8,77.0,70,29.89,6.2,ESE,11.5,-,N/A,,Scattered Clouds,120,2012-10-02 18:00:00
3:00 PM,86.0,77.0,74,29.89,6.2,ESE,11.5,-,N/A,Rain,Light Rain Showers,110,2012-10-02 19:00:00
4:00 PM,87.8,77.0,70,29.89,6.2,East,11.5,-,N/A,,Mostly Cloudy,100,2012-10-02 20:00:00
5:00 PM,86,77,67,29.90,10,East,9.2,,,,Scattered Clouds,90,2012-10-02 21:00:00
5:00 PM,86.0,77.0,74,29.89,6.2,East,9.2,-,N/A,,Mostly Cloudy,90,2012-10-02 21:00:00
6:00 PM,82.4,77.0,84,29.89,6.2,East,5.8,-,N/A,,Mostly Cloudy,90,2012-10-02 22:00:00
7:00 PM,82.4,75.2,79,29.89,6.2,East,3.5,-,N/A,,Mostly Cloudy,90,2012-10-02 23:00:00
8:00 PM,82,76,77,29.92,10,East,4.6,,,,Widespread Dust,80,2012-10-03 00:00:00
8:00 PM,82.4,75.2,79,29.92,6.2,East,4.6,-,N/A,,Mostly Cloudy,80,2012-10-03 00:00:00
9:00 PM,80.6,75.2,84,29.92,6.2,East,3.5,-,N/A,,Partly Cloudy,80,2012-10-03 01:00:00
10:00 PM,80.6,75.2,84,29.95,6.2,Calm,Calm,-,N/A,,Partly Cloudy,0,2012-10-03 02:00:00
11:00 PM,80,77,89,29.95,6,,2.3,,,Rain,Light Rain Showers,,2012-10-03 03:00:00
11:00 PM,80.6,77.0,89,29.95,6.2,Variable,2.3,-,N/A,Rain,Light Rain Showers,0,2012-10-03 03:00:00